[[{"header":{"parameterUnit":"m.s-1","parameterCategory":1,"la1":30.2992,"la2":30.254,"lo1":-89.0895,"lo2":-89.0443,"dy":0.0025,"dx":0.0025,"nx":19,"ny":19,"refTime":"2026-03-08T21:00:00:Z","depth":0,"parameterNumber":2,"parameterNumberName":"U-component_of_WINDS"},"data":[0,0,0,-1.2711,-1.2711,-1.2708,-1.2708,-1.2723,-1.2723,0,0,0,0,0,0,0,0,0,0,0,-1.2722,-1.2722,-1.2711,-1.2711,-1.2708,-1.2708,-1.2723,-1.2723,0,0,0,0,0,0,0,0,0,0,0,-1.2722,-1.2722,-1.2723,-1.2711,-1.2708,-1.2708,-1.2723,-1.2719,0,0,0,0,0,0,0,0,0,0,-1.2718,-1.2738,-1.2722,-1.2723,-1.2711,-1.2708,-1.2708,-1.2718,-1.2719,-1.2732,0,-1.2745,0,-1.2734,-1.2725,-1.2725,0,0,0,-1.2704,-1.2737,-1.2727,-1.2723,-1.2711,-1.2708,-1.2708,-1.2718,-1.2719,-1.2733,-1.2745,-1.2745,-1.2734,-1.2725,-1.2725,-1.2821,-1.2822,0,0,-1.2704,-1.2727,-1.2727,-1.2729,-1.2729,-1.2708,-1.2708,-1.2719,-1.2733,-1.2745,-1.2745,-1.2735,-1.2726,-1.2726,-1.282,-1.2821,0,0,0,-1.271,-1.2727,-1.2717,-1.2728,-1.2726,-1.2708,-1.2708,-1.2733,-1.2728,-1.2745,-1.2735,-1.2726,-1.2726,-1.2819,-1.2821,-1.2881,0,0,0,-1.2709,-1.273,-1.2717,-1.2731,-1.2727,-1.2729,-1.2722,-1.2727,-1.2727,-1.2735,-1.2726,-1.2726,-1.2818,-1.282,-1.2878,-1.2906,0,0,0,-1.2719,-1.2731,-1.2734,-1.2732,-1.2732,-1.2729,-1.2724,-1.2726,-1.2722,-1.2725,-1.2726,-1.2818,-1.282,-1.2874,-1.2901,-1.2938,0,0,0,-1.2736,-1.2788,-1.2736,-1.2791,-1.2732,-1.2766,-1.2723,-1.2748,-1.2758,-1.2726,-1.2819,-1.2821,-1.2873,-1.2898,-1.2935,-1.2974,-1.2992,0,0,-1.2815,-1.2799,-1.2829,-1.2782,-1.2831,-1.2765,-1.2823,-1.2811,-1.2791,-1.2813,-1.2815,-1.2879,-1.2901,-1.2938,-1.3086,-1.3101,0,0,0,-1.2862,-1.2885,-1.2893,-1.2903,-1.2896,-1.2891,-1.2868,-1.2864,-1.2881,-1.2806,-1.2902,-1.2914,-1.2935,-1.2952,-1.2965,-1.2981,-1.283,-1.2829,-1.2829,-1.3007,-1.2978,-1.3028,-1.2999,-1.301,-1.2986,-1.2993,-1.2983,-1.2951,-1.2974,-1.298,-1.3074,-1.3095,-1.3104,-1.3122,-1.2998,-1.2998,-1.2999,-1.2999,-1.3121,-1.3148,-1.3105,-1.3137,-1.3107,-1.3134,-1.3113,-1.309,-1.3111,-1.3066,-1.3083,-1.3037,-1.3121,-1.3135,-1.3003,-1.3002,-1.3002,-1.3001,-1.3001,-1.3212,-1.322,-1.3214,-1.3227,-1.3241,-1.321,-1.3233,-1.3205,-1.3179,-1.3195,-1.3199,-1.3198,-1.3193,-1.3199,-1.3199,-1.32,-1.32,-1.32,-1.32,-1.331,-1.3301,-1.3323,-1.332,-1.3323,-1.3324,-1.3302,-1.3305,-1.3301,-1.3279,-1.3279,-1.3245,-1.3134,-1.3107,-1.3205,-1.3204,-1.3204,-1.3203,-1.3203,-1.3435,-1.3403,-1.3437,-1.344,-1.3435,-1.3451,-1.3415,-1.3424,-1.3422,-1.3435,-1.3397,-1.332,-1.3302,-1.3292,-1.3269,-1.3403,-1.3403,-1.3403,-1.3403,-1.3513,-1.3501,-1.3529,-1.3537,-1.3542,-1.3513,-1.3554,-1.3538,-1.3515,-1.3513,-1.349,-1.3457,-1.3448,-1.3435,-1.3422,-1.34,-1.3565,-1.3565,-1.3565,-1.3589,-1.3576,-1.3615,-1.3593,-1.3586,-1.3582,-1.362,-1.3632,-1.36,-1.3571,-1.3511,-1.3504,-1.3451,-1.3436,-1.3405,-1.3385,-1.3345,0,0]},{"header":{"parameterUnit":"m.s-1","parameterCategory":1,"la1":30.2992,"la2":30.254,"lo1":-89.0895,"lo2":-89.0443,"dy":0.0025,"dx":0.0025,"nx":19,"ny":19,"refTime":"2026-03-08T21:00:00:Z","depth":0,"parameterNumber":3,"parameterNumberName":"V-component_of_WINDS"},"data":[0,0,0,1.106,1.106,1.1072,1.1072,1.1091,1.1092,0,0,0,0,0,0,0,0,0,0,0,1.1057,1.1057,1.1059,1.106,1.1072,1.1072,1.1091,1.1092,0,0,0,0,0,0,0,0,0,0,0,1.1057,1.1057,1.1057,1.106,1.1072,1.1072,1.1091,1.1081,0,0,0,0,0,0,0,0,0,0,1.1069,1.1067,1.1057,1.1057,1.106,1.1072,1.1072,1.1081,1.1082,1.1087,0,1.1091,0,1.1092,1.1093,1.1093,0,0,0,1.1059,1.1066,1.1068,1.1057,1.106,1.1072,1.1066,1.1081,1.1082,1.1089,1.1092,1.1092,1.1092,1.1093,1.1093,1.1126,1.1127,0,0,1.1058,1.106,1.1067,1.1069,1.1067,1.1066,1.1067,1.1082,1.1085,1.1092,1.1093,1.1093,1.1093,1.1094,1.1126,1.1127,0,0,0,1.1057,1.1059,1.1061,1.1069,1.107,1.1066,1.1067,1.1085,1.1085,1.1093,1.1093,1.1094,1.1094,1.1126,1.1126,1.1137,0,0,0,1.1057,1.1058,1.1061,1.1062,1.107,1.1077,1.107,1.1084,1.1086,1.1093,1.1094,1.1094,1.1126,1.1126,1.1137,1.1142,0,0,0,1.1056,1.1058,1.1061,1.1062,1.1067,1.1077,1.1079,1.1085,1.1086,1.1093,1.1094,1.1126,1.1126,1.1136,1.1141,1.1152,0,0,0,1.1055,1.1069,1.1061,1.1076,1.1067,1.1084,1.1078,1.1091,1.1098,1.1094,1.1126,1.1126,1.1136,1.114,1.1152,1.1162,1.1166,0,0,1.1074,1.1072,1.1081,1.1074,1.1092,1.1082,1.1102,1.1108,1.1107,1.112,1.1121,1.1137,1.1141,1.1152,1.119,1.1193,0,0,0,1.1087,1.1094,1.1099,1.1106,1.1111,1.1116,1.1118,1.1121,1.1132,1.1114,1.1144,1.1146,1.1153,1.1158,1.1161,1.1167,1.1129,1.1129,1.1128,1.1115,1.1114,1.113,1.1131,1.1139,1.1142,1.1149,1.1153,1.1149,1.1156,1.116,1.1183,1.1189,1.1191,1.1197,1.1165,1.1165,1.1165,1.1165,1.1142,1.1152,1.1148,1.1162,1.1162,1.1174,1.1179,1.1177,1.1189,1.1179,1.1185,1.1175,1.1195,1.12,1.1166,1.1166,1.1166,1.1166,1.1166,1.116,1.1165,1.1168,1.118,1.119,1.1191,1.1204,1.1203,1.1202,1.1208,1.1213,1.1213,1.1213,1.121,1.121,1.121,1.121,1.121,1.1211,1.1178,1.1181,1.1191,1.1199,1.1205,1.1213,1.1218,1.1224,1.1231,1.1229,1.1229,1.1226,1.1197,1.119,1.1212,1.1212,1.1211,1.1211,1.1211,1.1206,1.12,1.1216,1.1222,1.1232,1.1243,1.1242,1.1255,1.126,1.1267,1.1263,1.1241,1.1239,1.1236,1.1231,1.1262,1.1262,1.1262,1.1262,1.1222,1.1221,1.1238,1.1248,1.1258,1.1259,1.1279,1.1284,1.1288,1.1292,1.1287,1.128,1.1277,1.1277,1.1273,1.1268,1.1308,1.1308,1.1308,1.124,1.124,1.1256,1.126,1.1269,1.1277,1.1296,1.1309,1.1313,1.131,1.1295,1.1293,1.1281,1.1276,1.1273,1.1268,1.1258,0,0]}]]